Weather History for Torrington, WY

Change the Weather History Date:

Friday, November 2, 2012

  Actual Average Record
Temperature  
Mean Temperature 47 °F 42 °F  
Max Temperature 60 °F 56 °F 80 °F (2008)
Min Temperature 34 °F 28 °F 6 °F (1999)
Degree Days  
Heating Degree Days 18 23  
Month to date heating degree days 35 46  
Since 1 July heating degree days 661 756  
Cooling Degree Days 0 0  
Month to date cooling degree days 0 0  
Year to date cooling degree days 1021 678  
Moisture  
Dew Point 29 °F    
Average Humidity 52    
Maximum Humidity 76    
Minimum Humidity 27    
Precipitation  
Precipitation 0.00 in 0.03 in 0.34 in (2003)
Month to date precipitation 0.00 0.05  
Year to date precipitation 6.98 13.45  
Sea Level Pressure  
Sea Level Pressure 29.98 in    
Wind  
Wind Speed 8 mph (NW)    
Max Wind Speed 18 mph    
Max Gust Speed 26 mph    
Visibility 10 miles    
Events      
T = Trace of Precipitation, MM = Missing Value Source: NWS Daily Summary

Daily Weather History Graph

Daily Weather History Graph

Search for Another Location

Airport:

Trip Planner

Search our weather history database for the weather conditions in past years. The results will help you decide how hot, cold, wet, or windy it might be!

Date:

Astronomy

Nov. 02, 2012 Rise Set
Actual Time 7:31 AM MDT 5:48 PM MDT
Civil Twilight 7:02 AM MDT 6:17 PM MDT
Nautical Twilight 6:28 AM MDT 6:50 PM MDT
Astronomical Twilight 5:56 AM MDT 7:23 PM MDT
Moon 8:35 PM MDT (11/2) 10:55 AM MDT (11/2)
Length of Visible Light 11h 15m
Length of Day
10h 17m
Waning Gibbous, 87% of the Moon is Illuminated
Nov 2
Waning Gibbous
Nov 6
Last Quarter
Nov 13
New
Nov 20
First Quarter
Nov 28
Full

Hourly Weather History & Observations

Time (MDT) Temp. Windchill Dew Point Humidity Pressure Visibility Wind Dir Wind Speed Gust Speed Precip Events Conditions
12:53 AM 57.9 °F - 25.0 °F 28% 29.80 in 10.0 mi West 12.7 mph 17.3 mph N/A   Clear
1:53 AM 53.1 °F - 26.1 °F 35% 29.81 in 10.0 mi West 12.7 mph - N/A   Clear
2:53 AM 48.9 °F - 27.0 °F 43% 29.82 in 10.0 mi SSW 3.5 mph - N/A   Clear
3:53 AM 51.1 °F - 27.0 °F 39% 29.83 in 10.0 mi WNW 11.5 mph - N/A   Clear
4:53 AM 48.9 °F - 28.0 °F 44% 29.86 in 10.0 mi West 8.1 mph - N/A   Clear
5:53 AM 46.0 °F 41.4 °F 28.0 °F 50% 29.91 in 10.0 mi WNW 9.2 mph - N/A   Clear
6:53 AM 46.0 °F 39.6 °F 30.0 °F 54% 29.96 in 10.0 mi NNW 15.0 mph 24.2 mph N/A   Clear
7:53 AM 43.0 °F 37.2 °F 34.0 °F 71% 29.99 in 10.0 mi NW 10.4 mph - N/A   Clear
8:53 AM 46.0 °F - 33.1 °F 61% 30.02 in 10.0 mi Calm Calm - N/A   Clear
9:53 AM 48.9 °F - 35.1 °F 59% 30.03 in 10.0 mi West 5.8 mph - N/A   Clear
10:53 AM 52.0 °F - 35.1 °F 53% 30.01 in 10.0 mi NW 8.1 mph - N/A   Clear
11:53 AM 55.9 °F - 33.1 °F 42% 29.99 in 10.0 mi NNW 16.1 mph 23.0 mph N/A   Clear
12:53 PM 57.9 °F - 28.9 °F 33% 29.97 in 10.0 mi NNW 12.7 mph 24.2 mph N/A   Clear
1:53 PM 59.0 °F - 28.0 °F 31% 29.96 in 10.0 mi NNW 9.2 mph 18.4 mph N/A   Clear
2:53 PM 60.1 °F - 27.0 °F 28% 29.97 in 10.0 mi NNW 11.5 mph 17.3 mph N/A   Clear
3:53 PM 60.1 °F - 27.0 °F 28% 29.96 in 10.0 mi North 8.1 mph - N/A   Clear
4:53 PM 57.0 °F - 28.9 °F 34% 29.99 in 10.0 mi North 12.7 mph - N/A   Clear
5:53 PM 50.0 °F - 28.9 °F 44% 30.03 in 10.0 mi NE 8.1 mph - N/A   Clear
6:53 PM 44.1 °F 38.6 °F 28.9 °F 55% 30.07 in 10.0 mi NNE 10.4 mph - N/A   Clear
7:53 PM 44.1 °F 40.8 °F 28.9 °F 55% 30.09 in 10.0 mi NNE 5.8 mph - N/A   Clear
8:53 PM 42.1 °F - 28.9 °F 60% 30.12 in 10.0 mi Calm Calm - N/A   Clear
9:53 PM 37.9 °F 34.4 °F 30.0 °F 73% 30.14 in 10.0 mi West 4.6 mph - N/A   Clear
10:53 PM 39.0 °F 34.8 °F 28.9 °F 67% 30.15 in 10.0 mi NW 5.8 mph - N/A   Clear
11:53 PM 35.1 °F 31.0 °F 27.0 °F 72% 30.16 in 10.0 mi NNW 4.6 mph - N/A   Clear